Nellis AFB, NV

2:20 AM PDT on June 26, 2017 (GMT -0700)
Nellis Air Force Base

Weather History for KLSV - March, 2014

Change the Weather History Date:

Wednesday, March 12, 2014

  Actual Average Record
Temperature  
Mean Temperature 58 °F -  
Max Temperature 67 °F 69 °F 84 °F (1997)
Min Temperature 49 °F 44 °F 35 °F (2006)
Degree Days  
Heating Degree Days 6    
Growing Degree Days 8 (Base 50)    
Moisture  
Dew Point 18 °F    
Average Humidity 21    
Maximum Humidity 34    
Minimum Humidity 13    
Precipitation  
Precipitation 0.00 in - - ()
Sea Level Pressure  
Sea Level Pressure 30.10 in    
Wind  
Wind Speed 11 mph (NNE)    
Max Wind Speed 21 mph    
Max Gust Speed 26 mph    
Visibility 10 miles    
Events      
Averages and records for this station are not official NWS values.
T = Trace of Precipitation, MM = Missing Value Source: NWS Daily Summary

Daily Weather History Graph

Daily Weather History Graph

Search for Another Location

Airport or City:

Trip Planner

Search our weather history database for the weather conditions in past years. The results will help you decide how hot, cold, wet, or windy it might be!

Date:

Astronomy

Mar. 12, 2014 Rise Set
Actual Time 6:55 AM PDT 6:45 PM PDT
Civil Twilight 6:29 AM PDT 7:10 PM PDT
Nautical Twilight 5:59 AM PDT 7:40 PM PDT
Astronomical Twilight 5:29 AM PDT 8:10 PM PDT
Moon 3:24 PM PDT (3/12) 4:24 AM PDT (3/12)
Length of Visible Light 12h 41m
Length of Day
11h 49m
Waxing Gibbous, 86% of the Moon is Illuminated
Mar 12
Waxing Gibbous
Mar 16
Full
Mar 23
Last Quarter
Mar 30
New
Apr 7
First Quarter

Hourly Weather History & Observations

Time (PDT) Temp. Dew Point Humidity Pressure Visibility Wind Dir Wind Speed Gust Speed Precip Events Conditions
12:58 AM 55.8 °F 17.8 °F 23% 30.12 in 10.0 mi North 13.8 mph - N/A   Clear
1:58 AM 54.9 °F 18.9 °F 24% 30.15 in 10.0 mi NNW 4.6 mph - N/A   Clear
2:58 AM 55.2 °F 19.2 °F 25% 30.14 in 10.0 mi North 8.1 mph - N/A   Clear
3:58 AM 52.0 °F 19.6 °F 28% 30.13 in 10.0 mi WNW 9.2 mph - N/A   Clear
4:58 AM 50.7 °F 20.7 °F 31% 30.15 in 10.0 mi NW 3.5 mph - N/A   Clear
5:58 AM 49.1 °F 21.4 °F 34% 30.16 in 10.0 mi Variable 3.5 mph - N/A   Clear
6:58 AM 50.7 °F 21.4 °F 32% 30.17 in 10.0 mi North 8.1 mph - N/A   Clear
7:31 AM 51.8 °F 21.2 °F 30% 30.20 in 10.0 mi NNE 12.7 mph 20.7 mph N/A   Clear
7:57 AM 53.6 °F 23.0 °F 30% 30.21 in 10.0 mi North 11.5 mph - N/A   Clear
7:58 AM 53.1 °F 22.1 °F 30% 30.19 in 10.0 mi North 11.5 mph - N/A   Clear
8:58 AM 56.8 °F 22.5 °F 26% 30.22 in 10.0 mi Variable 3.5 mph - N/A   Clear
9:58 AM 59.0 °F 21.4 °F 23% 30.20 in 10.0 mi NE 20.7 mph - N/A   Clear
10:58 AM 60.8 °F 21.2 °F 22% 30.18 in 10.0 mi NNE 20.7 mph 26.5 mph N/A   Clear
11:58 AM 63.0 °F 19.0 °F 18% 30.16 in 10.0 mi NE 20.7 mph 26.5 mph N/A   Clear
12:58 PM 64.4 °F 18.9 °F 17% 30.13 in 10.0 mi NE 20.7 mph 24.2 mph N/A   Clear
1:52 PM 66.2 °F 17.6 °F 15% 30.12 in 10.0 mi NNE 18.4 mph - N/A   Clear
1:58 PM 65.8 °F 17.2 °F 15% 30.09 in 10.0 mi NNE 17.3 mph 25.3 mph N/A   Clear
2:06 PM 66.2 °F 15.8 °F 14% 30.11 in 10.0 mi ENE 17.3 mph - N/A   Clear
2:58 PM 66.7 °F 16.3 °F 14% 30.06 in 10.0 mi NNE 17.3 mph 21.9 mph N/A   Clear
3:21 PM 66.2 °F 15.8 °F 14% 30.08 in 10.0 mi NE 17.3 mph 20.7 mph N/A   Clear
3:53 PM 68.0 °F 15.8 °F 13% 30.06 in 10.0 mi NNE 15.0 mph 23.0 mph N/A   Clear
3:58 PM 67.1 °F 15.1 °F 13% 30.04 in 10.0 mi NE 11.5 mph 23.0 mph N/A   Clear
4:26 PM 68.0 °F 15.8 °F 13% 30.05 in 10.0 mi North 13.8 mph 18.4 mph N/A   Clear
4:58 PM 67.6 °F 15.4 °F 13% 30.01 in 10.0 mi North 12.7 mph - N/A   Clear
5:58 PM 67.3 °F 15.1 °F 13% 30.00 in 10.0 mi NNE 10.4 mph - N/A   Clear
6:58 PM 64.8 °F 14.7 °F 14% 30.00 in 10.0 mi North 8.1 mph - N/A   Clear
7:58 PM 62.4 °F 15.6 °F 16% 30.00 in 10.0 mi SE 2.3 mph - N/A   Clear
8:58 PM 60.6 °F 15.8 °F 17% 30.00 in 10.0 mi NNW 5.8 mph - N/A   Clear
9:58 PM 56.3 °F 16.0 °F 21% 30.00 in 10.0 mi Variable 2.3 mph - N/A   Clear
10:58 PM 57.4 °F 16.9 °F 21% 30.00 in 10.0 mi WNW 5.8 mph - N/A   Clear
11:58 PM 55.6 °F 16.7 °F 22% 30.00 in 10.0 mi West 4.6 mph - N/A   Clear